Hourly Data Report for October 23, 2016

All times are specified in Local Standard Time (LST). Add 1 hour to adjust for Daylight Saving Time where and when it is observed.

QIKIQTARJUAQ A
NUNAVUT

67°32'48.000" N
64°01'54.000" W
5.50 m
2400577
YVM

Download Data

Hourly Data (October 2016)
Hourly Data Report for October 23, 2016
Temp Definition
°C
Dew Point Temp Definition
°C
Rel Hum Definition
%
Wind Dir Definition
10's deg

Wind Spd Definition
km/h
Visibility Definition
km
Stn Press Definition
kPa
Hmdx Definition


Wind Chill Definition


Weather Definition


TIME
00:00 Legend Double Dagger -3.3 -4.8 89 36 21 16.1 102.73   -10 Snow
01:00 Legend Double Dagger -3.8 -7.5 76 32 13 16.1 102.75   -9 LegendNANA
02:00 Legend Double Dagger -3.3 -8.6 67 32 15 16.1 102.76   -8 LegendNANA
03:00 Legend Double Dagger -4.2 -7.9 75 33 9 16.1 102.83   -8 LegendNANA
04:00 Legend Double Dagger -3.9 -7.4 77 31 15 16.1 102.84   -9 LegendNANA
05:00 Legend Double Dagger -4.0 -7.0 80 31 15 16.1 102.87   -9 LegendNANA
06:00 Legend Double Dagger -4.6 -6.9 84 32 9 4.8 102.89   -8 Snow
07:00 Legend Double Dagger -4.5 -9.2 70 33 13 16.1 102.89   -10 Snow
08:00 Legend Double Dagger -4.6 -9.2 70 32 13 16.1 102.91   -10 LegendNANA
09:00 Legend Double Dagger -4.2 -9.5 67 32 15 16.1 102.92   -10 LegendNANA
10:00 Legend Double Dagger -4.0 -10.5 61 31 13 16.1 102.92   -9 LegendNANA
11:00 Legend Double Dagger -3.9 -9.6 65 33 17 16.1 102.91   -10 LegendNANA
12:00 Legend Double Dagger -3.9 -11.1 58 34 8 16.1 102.90   -7 LegendNANA
13:00 Legend Double Dagger -3.2 -10.0 60 34 13 16.1 102.89   -8 LegendNANA
14:00 Legend Double Dagger -3.7 -9.7 63 33 15 16.1 102.91   -9 LegendNANA
15:00 Legend Double Dagger -4.0 -10.2 62 33 18 16.1 102.89   -10 LegendNANA
16:00 Legend Double Dagger -3.7 -9.9 63 31 17 16.1 102.89   -9 LegendNANA
17:00 Legend Double Dagger -3.3 -9.2 64 32 22 16.1 102.86   -10 LegendNANA
18:00 Legend Double Dagger -3.1 -9.4 62 29 21 16.1 102.82   -9 LegendNANA
19:00 Legend Double Dagger -3.2 -8.6 67 33 21 16.1 102.81   -9 LegendNANA
20:00 Legend Double Dagger -3.3 -9.0 65 28 21 16.1 102.74   -10 LegendNANA
21:00 Legend Double Dagger -3.5 -8.0 71 32 21 16.1 102.70   -10 LegendNANA
22:00 Legend Double Dagger -3.0 -9.3 62 33 18 16.1 102.64   -9 LegendNANA
23:00 Legend Double Dagger -3.3 -10.1 60 31 18 16.1 102.60   -9 LegendNANA

Notes on Data Quality.

Legend

  • E = Estimated
  • M = Missing
  • NA = Not Available
  • ‡ = Partner data that is not subject to review by the National Climate Archives
Date modified: